QPF
0.01 0.00 0.00 0.00 0.00 0.00 0.00 0.01 0.01 0.01 0.01 0.01 0.01 0.01 0.01 0.01 0.02 0.02 0.03 0.03 0.03 0.02 0.02 0.03 0.05 0.05 0.05 0.04 0.03 0.03 0.03 0.03 0.03 0.03 0.02 0.02 0.02 0.03 0.05 0.07 0.05 0.05 0.06 0.06
0.01 0.00 0.00 0.00 0.00 0.00 0.00 0.00 0.00 0.01 0.01 0.01 0.01 0.01 0.01 0.01 0.01 0.02 0.03 0.04 0.03 0.02 0.02 0.02 0.04 0.05 0.05 0.04 0.03 0.03 0.03 0.03 0.03 0.03 0.03 0.02 0.03 0.04 0.05 0.06 0.04 0.03 0.04 0.04
0.01 0.01 0.01 0.01 0.01 0.00 0.01 0.01 0.00 0.01 0.01 0.01 0.00 0.01 0.01 0.02 0.01 0.02 0.03 0.03 0.02 0.02 0.02 0.02 0.02 0.03 0.02 0.02 0.03 0.04 0.04 0.03 0.02 0.03 0.03 0.03 0.03 0.05 0.05 0.03 0.04 0.03 0.04 0.04
0.02 0.02 0.03 0.02 0.01 0.00 0.01 0.01 0.01 0.01 0.01 0.01 0.01 0.01 0.02 0.02 0.02 0.02 0.02 0.02 0.02 0.02 0.01 0.02 0.01 0.01 0.01 0.02 0.03 0.05 0.07 0.06 0.03 0.02 0.03 0.03 0.03 0.04 0.05 0.04 0.04 0.04 0.04 0.06
0.02 0.03 0.04 0.03 0.02 0.01 0.01 0.02 0.02 0.01 0.01 0.01 0.01 0.02 0.03 0.04 0.03 0.03 0.03 0.02 0.02 0.02 0.02 0.01 0.01 0.01 0.01 0.02 0.03 0.04 0.06 0.06 0.04 0.03 0.02 0.02 0.03 0.04 0.04 0.05 0.05 0.05 0.04 0.05
0.02 0.03 0.04 0.04 0.03 0.02 0.02 0.03 0.02 0.01 0.01 0.01 0.02 0.03 0.03 0.02 0.02 0.03 0.04 0.03 0.03 0.02 0.02 0.01 0.01 0.01 0.02 0.03 0.03 0.03 0.04 0.04 0.04 0.03 0.02 0.01 0.02 0.02 0.04 0.05 0.05 0.04 0.03 0.04
0.03 0.03 0.03 0.03 0.03 0.03 0.04 0.04 0.02 0.01 0.01 0.02 0.03 0.03 0.03 0.02 0.02 0.03 0.03 0.02 0.03 0.04 0.03 0.02 0.02 0.02 0.02 0.03 0.02 0.01 0.02 0.03 0.03 0.02 0.02 0.02 0.01 0.01 0.02 0.03 0.03 0.03 0.03 0.03
0.03 0.03 0.03 0.03 0.03 0.05 0.07 0.04 0.02 0.02 0.02 0.02 0.03 0.03 0.04 0.04 0.03 0.03 0.03 0.03 0.03 0.03 0.04 0.02 0.02 0.02 0.02 0.01 0.01 0.01 0.01 0.01 0.01 0.01 0.01 0.01 0.02 0.02 0.02 0.02 0.02 0.02 0.02 0.02
0.03 0.03 0.03 0.03 0.04 0.04 0.04 0.03 0.02 0.02 0.03 0.03 0.03 0.03 0.04 0.04 0.04 0.04 0.03 0.03 0.02 0.02 0.03 0.02 0.01 0.01 0.01 0.01 0.01 0.01 0.01 0.01 0.01 0.01 0.01 0.01 0.02 0.02 0.02 0.02 0.02 0.02 0.02 0.01
0.02 0.03 0.02 0.02 0.02 0.02 0.02 0.03 0.02 0.02 0.02 0.03 0.04 0.05 0.05 0.04 0.03 0.03 0.03 0.02 0.02 0.03 0.03 0.02 0.02 0.01 0.00 0.01 0.01 0.01 0.01 0.01 0.01 0.01 0.01 0.01 0.02 0.02 0.02 0.01 0.01 0.01 0.01 0.01
0.02 0.02 0.02 0.02 0.02 0.02 0.02 0.02 0.01 0.01 0.02 0.03 0.04 0.05 0.05 0.06 0.04 0.03 0.03 0.02 0.02 0.03 0.03 0.02 0.02 0.02 0.01 0.01 0.01 0.01 0.01 0.01 0.01 0.02 0.02 0.01 0.01 0.01 0.01 0.01 0.01 0.01 0.01 0.01
0.01 0.02 0.02 0.02 0.01 0.01 0.02 0.02 0.03 0.03 0.04 0.04 0.03 0.04 0.05 0.06 0.05 0.02 0.02 0.02 0.02 0.03 0.02 0.01 0.02 0.02 0.02 0.02 0.01 0.01 0.01 0.01 0.02 0.02 0.02 0.02 0.02 0.01 0.02 0.01 0.01 0.01 0.02 0.02
0.01 0.01 0.01 0.01 0.02 0.02 0.02 0.03 0.04 0.05 0.04 0.03 0.04 0.04 0.03 0.05 0.04 0.02 0.02 0.02 0.02 0.02 0.01 0.01 0.01 0.02 0.02 0.03 0.03 0.02 0.02 0.02 0.03 0.03 0.03 0.02 0.02 0.02 0.02 0.02 0.02 0.02 0.03 0.03
0.01 0.01 0.02 0.02 0.02 0.03 0.03 0.03 0.03 0.02 0.02 0.02 0.03 0.03 0.03 0.03 0.03 0.03 0.02 0.02 0.01 0.01 0.01 0.02 0.02 0.02 0.02 0.03 0.03 0.03 0.03 0.03 0.03 0.04 0.04 0.03 0.03 0.03 0.04 0.03 0.03 0.03 0.03 0.03
0.01 0.02 0.02 0.02 0.03 0.03 0.03 0.03 0.02 0.03 0.02 0.02 0.02 0.02 0.02 0.02 0.02 0.03 0.02 0.01 0.01 0.01 0.02 0.02 0.02 0.03 0.03 0.03 0.03 0.03 0.03 0.03 0.04 0.05 0.06 0.05 0.04 0.04 0.04 0.03 0.03 0.03 0.03 0.03
0.01 0.02 0.02 0.02 0.02 0.03 0.02 0.02 0.01 0.02 0.02 0.02 0.03 0.03 0.03 0.02 0.02 0.03 0.02 0.02 0.01 0.01 0.02 0.03 0.04 0.04 0.03 0.02 0.02 0.02 0.02 0.03 0.03 0.04 0.06 0.05 0.04 0.04 0.04 0.04 0.03 0.03 0.03 0.03
0.01 0.01 0.01 0.01 0.01 0.02 0.02 0.01 0.01 0.01 0.02 0.02 0.03 0.04 0.04 0.04 0.04 0.05 0.04 0.03 0.02 0.02 0.02 0.03 0.03 0.02 0.01 0.01 0.02 0.02 0.03 0.03 0.03 0.04 0.04 0.04 0.04 0.03 0.03 0.03 0.03 0.03 0.03 0.03
0.00 0.00 0.01 0.01 0.02 0.02 0.02 0.01 0.01 0.02 0.02 0.03 0.04 0.04 0.03 0.03 0.03 0.03 0.03 0.02 0.01 0.02 0.02 0.02 0.02 0.01 0.01 0.01 0.01 0.01 0.02 0.02 0.03 0.04 0.04 0.04 0.03 0.03 0.02 0.02 0.02 0.03 0.03 0.03
0.01 0.00 0.00 0.01 0.01 0.02 0.01 0.01 0.01 0.02 0.03 0.04 0.04 0.04 0.03 0.03 0.02 0.01 0.01 0.01 0.01 0.02 0.02 0.02 0.02 0.02 0.01 0.01 0.01 0.01 0.01 0.01 0.02 0.03 0.04 0.04 0.03 0.03 0.03 0.03 0.02 0.02 0.03 0.03
0.01 0.01 0.00 0.01 0.02 0.02 0.02 0.02 0.02 0.02 0.02 0.03 0.03 0.03 0.02 0.02 0.01 0.01 0.01 0.01 0.01 0.01 0.01 0.01 0.01 0.01 0.01 0.01 0.01 0.02 0.02 0.01 0.02 0.03 0.03 0.03 0.03 0.03 0.03 0.02 0.02 0.02 0.02 0.03
0.00 0.00 0.00 0.01 0.01 0.01 0.01 0.02 0.02 0.01 0.01 0.01 0.01 0.01 0.01 0.01 0.00 0.01 0.01 0.02 0.02 0.01 0.02 0.02 0.01 0.01 0.01 0.01 0.01 0.02 0.02 0.02 0.02 0.04 0.04 0.02 0.02 0.03 0.03 0.03 0.03 0.02 0.02 0.03
0.00 0.00 0.00 0.00 0.00 0.00 0.01 0.02 0.02 0.01 0.01 0.01 0.01 0.01 0.01 0.01 0.00 0.01 0.01 0.02 0.02 0.02 0.03 0.03 0.03 0.02 0.03 0.03 0.02 0.03 0.03 0.02 0.03 0.04 0.03 0.02 0.02 0.02 0.02 0.02 0.03 0.02 0.02 0.02
0.01 0.00 0.00 0.00 0.00 0.00 0.00 0.02 0.03 0.02 0.01 0.01 0.01 0.01 0.01 0.01 0.01 0.01 0.01 0.01 0.01 0.02 0.03 0.04 0.04 0.04 0.04 0.04 0.04 0.04 0.03 0.02 0.02 0.03 0.03 0.02 0.02 0.02 0.02 0.02 0.02 0.02 0.02 0.02
0.01 0.01 0.01 0.00 0.00 0.00 0.01 0.02 0.03 0.02 0.01 0.00 0.01 0.01 0.01 0.01 0.01 0.00 0.01 0.01 0.02 0.02 0.03 0.04 0.04 0.04 0.04 0.03 0.03 0.03 0.03 0.02 0.03 0.03 0.02 0.01 0.01 0.01 0.02 0.03 0.02 0.02 0.01 0.01
0.01 0.00 0.00 0.00 0.00 0.01 0.01 0.01 0.02 0.01 0.01 0.00 0.00 0.00 0.01 0.01 0.01 0.01 0.01 0.01 0.02 0.04 0.04 0.03 0.03 0.03 0.03 0.03 0.02 0.02 0.02 0.02 0.03 0.03 0.03 0.02 0.02 0.01 0.02 0.03 0.02 0.02 0.02 0.02
0.01 0.01 0.00 0.00 0.00 0.01 0.01 0.01 0.01 0.01 0.01 0.00 0.00 0.00 0.01 0.01 0.01 0.01 0.02 0.02 0.03 0.04 0.04 0.02 0.02 0.02 0.02 0.03 0.03 0.03 0.03 0.03 0.03 0.03 0.03 0.02 0.02 0.02 0.02 0.02 0.02 0.02 0.02 0.03
0.01 0.01 0.01 0.01 0.01 0.01 0.01 0.01 0.01 0.00 0.00 0.00 0.00 0.00 0.00 0.01 0.01 0.02 0.03 0.04 0.04 0.04 0.04 0.02 0.01 0.01 0.02 0.02 0.03 0.03 0.04 0.04 0.04 0.03 0.02 0.02 0.02 0.02 0.02 0.01 0.01 0.02 0.03 0.03
MSLP
1006.08 1005.92 1005.75 1005.57 1005.39 1005.22 1005.06 1004.91 1004.78 1004.69 1004.67 1004.72 1004.87 1005.13 1005.50 1005.97 1006.52 1007.14 1007.77 1008.40 1008.98 1009.51 1009.96 1010.35 1010.69 1010.99 1011.26 1011.54 1011.83 1012.14 1012.47 1012.82 1013.16 1013.51 1013.85 1014.18 1014.50 1014.81 1015.13 1015.46 1015.81 1016.17 1016.54 1016.93
1006.33 1006.16 1005.95 1005.71 1005.44 1005.18 1004.92 1004.70 1004.52 1004.41 1004.37 1004.42 1004.59 1004.85 1005.22 1005.67 1006.20 1006.77 1007.36 1007.94 1008.50 1009.01 1009.47 1009.88 1010.25 1010.58 1010.90 1011.21 1011.53 1011.85 1012.19 1012.54 1012.89 1013.25 1013.62 1013.99 1014.36 1014.74 1015.12 1015.51 1015.90 1016.29 1016.69 1017.07
1006.49 1006.34 1006.12 1005.85 1005.55 1005.22 1004.91 1004.64 1004.42 1004.27 1004.21 1004.26 1004.41 1004.66 1005.00 1005.41 1005.89 1006.41 1006.94 1007.48 1007.99 1008.48 1008.94 1009.37 1009.76 1010.13 1010.49 1010.83 1011.17 1011.51 1011.86 1012.22 1012.58 1012.96 1013.34 1013.74 1014.16 1014.58 1015.01 1015.45 1015.89 1016.31 1016.72 1017.11
1006.49 1006.38 1006.19 1005.93 1005.61 1005.28 1004.95 1004.65 1004.41 1004.25 1004.18 1004.21 1004.35 1004.57 1004.88 1005.25 1005.68 1006.14 1006.62 1007.10 1007.57 1008.04 1008.49 1008.92 1009.33 1009.73 1010.11 1010.48 1010.84 1011.20 1011.55 1011.91 1012.28 1012.65 1013.05 1013.46 1013.89 1014.33 1014.79 1015.25 1015.71 1016.16 1016.58 1016.97
1006.33 1006.25 1006.10 1005.86 1005.58 1005.26 1004.95 1004.67 1004.44 1004.29 1004.23 1004.27 1004.40 1004.61 1004.90 1005.24 1005.62 1006.03 1006.46 1006.89 1007.33 1007.76 1008.19 1008.62 1009.04 1009.45 1009.85 1010.23 1010.61 1010.97 1011.33 1011.67 1012.03 1012.38 1012.76 1013.15 1013.57 1014.00 1014.45 1014.90 1015.36 1015.80 1016.22 1016.61
1006.02 1005.96 1005.84 1005.65 1005.41 1005.14 1004.88 1004.64 1004.46 1004.36 1004.33 1004.40 1004.55 1004.77 1005.05 1005.38 1005.74 1006.11 1006.50 1006.89 1007.29 1007.69 1008.10 1008.51 1008.92 1009.33 1009.73 1010.12 1010.49 1010.85 1011.19 1011.52 1011.84 1012.16 1012.49 1012.83 1013.20 1013.59 1013.99 1014.41 1014.83 1015.25 1015.66 1016.05
1005.61 1005.56 1005.45 1005.30 1005.12 1004.91 1004.72 1004.56 1004.45 1004.41 1004.46 1004.58 1004.77 1005.03 1005.33 1005.66 1006.00 1006.36 1006.72 1007.08 1007.44 1007.80 1008.17 1008.55 1008.94 1009.33 1009.72 1010.10 1010.46 1010.80 1011.12 1011.41 1011.69 1011.95 1012.22 1012.49 1012.78 1013.09 1013.43 1013.79 1014.16 1014.55 1014.94 1015.33
1005.17 1005.10 1005.00 1004.89 1004.75 1004.62 1004.51 1004.43 1004.42 1004.46 1004.59 1004.78 1005.03 1005.33 1005.66 1006.01 1006.36 1006.70 1007.03 1007.36 1007.67 1007.99 1008.32 1008.66 1009.01 1009.37 1009.73 1010.09 1010.42 1010.74 1011.02 1011.27 1011.50 1011.70 1011.89 1012.08 1012.29 1012.51 1012.77 1013.06 1013.39 1013.74 1014.11 1014.51
1004.74 1004.65 1004.56 1004.47 1004.39 1004.32 1004.29 1004.31 1004.38 1004.52 1004.72 1004.98 1005.29 1005.63 1006.00 1006.36 1006.70 1007.03 1007.34 1007.62 1007.89 1008.16 1008.43 1008.72 1009.02 1009.33 1009.65 1009.97 1010.27 1010.55 1010.80 1011.01 1011.18 1011.32 1011.43 1011.55 1011.67 1011.82 1012.01 1012.24 1012.52 1012.85 1013.23 1013.65
1004.34 1004.24 1004.16 1004.10 1004.08 1004.08 1004.13 1004.22 1004.37 1004.58 1004.85 1005.16 1005.52 1005.89 1006.26 1006.62 1006.96 1007.26 1007.52 1007.76 1007.97 1008.17 1008.38 1008.60 1008.84 1009.09 1009.36 1009.64 1009.90 1010.14 1010.35 1010.51 1010.64 1010.72 1010.78 1010.83 1010.89 1010.98 1011.12 1011.32 1011.59 1011.92 1012.33 1012.78
1003.99 1003.89 1003.84 1003.83 1003.86 1003.93 1004.04 1004.20 1004.41 1004.67 1004.98 1005.32 1005.69 1006.06 1006.42 1006.75 1007.05 1007.30 1007.51 1007.68 1007.82 1007.95 1008.09 1008.23 1008.40 1008.59 1008.80 1009.03 1009.24 1009.44 1009.61 1009.74 1009.82 1009.87 1009.88 1009.89 1009.91 1009.97 1010.09 1010.29 1010.57 1010.94 1011.40 1011.92
1003.64 1003.59 1003.60 1003.65 1003.75 1003.88 1004.06 1004.27 1004.52 1004.80 1005.11 1005.44 1005.78 1006.12 1006.43 1006.71 1006.95 1007.13 1007.27 1007.36 1007.43 1007.48 1007.53 1007.60 1007.69 1007.81 1007.96 1008.13 1008.30 1008.46 1008.59 1008.69 1008.74 1008.76 1008.75 1008.74 1008.75 1008.80 1008.93 1009.15 1009.48 1009.91 1010.44 1011.04
1003.27 1003.31 1003.40 1003.55 1003.72 1003.93 1004.15 1004.40 1004.66 1004.94 1005.23 1005.52 1005.80 1006.08 1006.32 1006.52 1006.67 1006.77 1006.82 1006.83 1006.81 1006.78 1006.75 1006.74 1006.76 1006.82 1006.91 1007.02 1007.15 1007.27 1007.37 1007.44 1007.47 1007.47 1007.45 1007.43 1007.45 1007.52 1007.67 1007.94 1008.32 1008.82 1009.42 1010.11
1002.89 1003.04 1003.24 1003.49 1003.75 1004.02 1004.30 1004.57 1004.83 1005.08 1005.33 1005.56 1005.77 1005.95 1006.10 1006.20 1006.26 1006.27 1006.23 1006.15 1006.05 1005.93 1005.83 1005.75 1005.70 1005.70 1005.73 1005.80 1005.88 1005.97 1006.04 1006.09 1006.11 1006.10 1006.08 1006.07 1006.09 1006.19 1006.38 1006.68 1007.12 1007.68 1008.35 1009.10
1002.51 1002.78 1003.11 1003.45 1003.81 1004.14 1004.46 1004.74 1004.99 1005.21 1005.40 1005.55 1005.67 1005.76 1005.81 1005.81 1005.77 1005.68 1005.55 1005.38 1005.20 1005.01 1004.83 1004.69 1004.58 1004.52 1004.51 1004.54 1004.59 1004.65 1004.71 1004.75 1004.76 1004.75 1004.74 1004.74 1004.78 1004.89 1005.11 1005.45 1005.91 1006.51 1007.23 1008.03
1002.18 1002.58 1003.01 1003.45 1003.87 1004.26 1004.60 1004.89 1005.12 1005.30 1005.43 1005.51 1005.54 1005.53 1005.48 1005.38 1005.24 1005.06 1004.83 1004.58 1004.32 1004.05 1003.81 1003.61 1003.45 1003.35 1003.30 1003.30 1003.33 1003.39 1003.44 1003.48 1003.50 1003.51 1003.51 1003.53 1003.59 1003.71 1003.94 1004.29 1004.77 1005.37 1006.09 1006.89
1001.98 1002.46 1002.97 1003.47 1003.94 1004.36 1004.71 1004.99 1005.20 1005.33 1005.40 1005.41 1005.37 1005.27 1005.12 1004.93 1004.69 1004.41 1004.10 1003.76 1003.42 1003.08 1002.77 1002.51 1002.30 1002.16 1002.09 1002.08 1002.11 1002.17 1002.24 1002.30 1002.36 1002.39 1002.43 1002.47 1002.55 1002.69 1002.92 1003.26 1003.72 1004.30 1004.98 1005.75
1001.95 1002.47 1003.01 1003.53 1004.01 1004.43 1004.78 1005.03 1005.21 1005.30 1005.32 1005.26 1005.15 1004.97 1004.74 1004.46 1004.12 1003.75 1003.34 1002.91 1002.48 1002.06 1001.68 1001.36 1001.10 1000.93 1000.84 1000.82 1000.86 1000.95 1001.05 1001.17 1001.27 1001.37 1001.45 1001.54 1001.65 1001.81 1002.04 1002.36 1002.78 1003.31 1003.94 1004.64
1002.11 1002.62 1003.14 1003.64 1004.09 1004.48 1004.79 1005.01 1005.15 1005.19 1005.16 1005.06 1004.88 1004.63 1004.32 1003.95 1003.53 1003.05 1002.55 1002.01 1001.48 1000.97 1000.51 1000.11 999.80 999.59 999.47 999.46 999.52 999.65 999.81 1000.00 1000.18 1000.36 1000.52 1000.68 1000.84 1001.03 1001.27 1001.57 1001.96 1002.42 1002.97 1003.58
1002.43 1002.87 1003.32 1003.76 1004.15 1004.48 1004.74 1004.92 1005.01 1005.02 1004.94 1004.79 1004.56 1004.25 1003.87 1003.41 1002.89 1002.32 1001.70 1001.05 1000.41 999.79 999.23 998.75 998.37 998.11 997.97 997.95 998.04 998.21 998.44 998.71 998.99 999.27 999.53 999.78 1000.02 1000.26 1000.52 1000.83 1001.18 1001.60 1002.07 1002.60
1002.81 1003.16 1003.52 1003.86 1004.17 1004.43 1004.63 1004.75 1004.80 1004.77 1004.66 1004.47 1004.19 1003.83 1003.39 1002.86 1002.24 1001.56 1000.83 1000.06 999.30 998.56 997.89 997.31 996.85 996.52 996.35 996.32 996.42 996.63 996.93 997.28 997.66 998.05 998.42 998.77 999.10 999.42 999.73 1000.05 1000.40 1000.78 1001.20 1001.66
1003.17 1003.41 1003.66 1003.90 1004.12 1004.31 1004.44 1004.52 1004.53 1004.47 1004.34 1004.13 1003.82 1003.42 1002.92 1002.32 1001.62 1000.85 1000.00 999.12 998.23 997.37 996.59 995.90 995.35 994.95 994.72 994.67 994.77 995.00 995.34 995.76 996.23 996.71 997.18 997.64 998.06 998.46 998.84 999.20 999.57 999.94 1000.33 1000.74
1003.42 1003.56 1003.70 1003.85 1003.99 1004.11 1004.20 1004.24 1004.23 1004.17 1004.03 1003.81 1003.49 1003.06 1002.52 1001.87 1001.11 1000.25 999.32 998.34 997.35 996.38 995.48 994.70 994.05 993.57 993.28 993.17 993.24 993.47 993.82 994.27 994.79 995.33 995.89 996.42 996.93 997.41 997.85 998.26 998.66 999.05 999.44 999.83
1003.52 1003.56 1003.63 1003.71 1003.79 1003.87 1003.93 1003.96 1003.95 1003.89 1003.77 1003.56 1003.24 1002.82 1002.27 1001.59 1000.80 999.90 998.90 997.85 996.79 995.74 994.76 993.89 993.16 992.60 992.23 992.06 992.07 992.25 992.58 993.01 993.53 994.09 994.68 995.26 995.81 996.34 996.83 997.30 997.73 998.14 998.54 998.93
1003.47 1003.46 1003.48 1003.52 1003.57 1003.63 1003.69 1003.74 1003.75 1003.72 1003.63 1003.45 1003.16 1002.76 1002.23 1001.57 1000.77 999.86 998.86 997.79 996.69 995.60 994.58 993.65 992.86 992.23 991.79 991.53 991.47 991.57 991.82 992.20 992.66 993.19 993.75 994.31 994.88 995.41 995.93 996.41 996.87 997.30 997.71 998.10
1003.33 1003.30 1003.31 1003.34 1003.40 1003.48 1003.56 1003.64 1003.70 1003.71 1003.67 1003.54 1003.31 1002.96 1002.47 1001.85 1001.10 1000.23 999.26 998.22 997.14 996.07 995.04 994.10 993.28 992.61 992.10 991.77 991.61 991.61 991.76 992.02 992.38 992.82 993.29 993.80 994.30 994.81 995.30 995.77 996.22 996.65 997.06 997.45
1003.22 1003.21 1003.23 1003.29 1003.38 1003.49 1003.62 1003.75 1003.86 1003.93 1003.94 1003.88 1003.71 1003.43 1003.01 1002.47 1001.80 1001.01 1000.12 999.15 998.15 997.14 996.17 995.26 994.45 993.76 993.21 992.82 992.57 992.46 992.48 992.61 992.84 993.13 993.48 993.87 994.27 994.69 995.11 995.52 995.93 996.33 996.71 997.08
Thickness
5688 5693 5694 5692 5693 5696 5696 5698 5696 5697 5698 5697 5697 5695 5693 5692 5690 5689 5688 5686 5685 5683 5682 5682 5681 5680 5679 5679 5678 5678 5677 5676 5675 5674 5673 5671 5670 5670 5669 5668 5668 5667 5666 5665
5674 5682 5684 5682 5685 5688 5688 5691 5691 5691 5689 5694 5693 5691 5686 5684 5683 5681 5681 5679 5677 5676 5675 5674 5673 5672 5672 5671 5671 5671 5670 5670 5670 5669 5667 5666 5665 5664 5663 5663 5663 5662 5662 5661
5663 5672 5672 5666 5675 5679 5680 5685 5684 5680 5682 5683 5681 5679 5677 5677 5676 5673 5672 5671 5669 5668 5668 5667 5666 5666 5665 5665 5664 5664 5664 5664 5664 5663 5662 5661 5661 5659 5658 5657 5658 5657 5657 5657
5656 5654 5646 5663 5673 5674 5671 5672 5675 5676 5675 5674 5672 5671 5671 5670 5668 5665 5664 5663 5662 5662 5661 5661 5660 5660 5659 5659 5658 5657 5657 5657 5657 5657 5656 5656 5655 5654 5653 5653 5653 5653 5653 5653
5647 5646 5649 5656 5661 5660 5657 5657 5663 5664 5665 5665 5666 5665 5662 5662 5661 5658 5657 5656 5655 5655 5655 5654 5653 5653 5652 5651 5651 5651 5650 5650 5650 5650 5650 5649 5649 5648 5648 5648 5648 5648 5649 5648
5641 5636 5636 5646 5654 5657 5652 5646 5654 5655 5655 5655 5656 5653 5653 5654 5653 5651 5649 5648 5648 5648 5648 5647 5646 5646 5645 5644 5643 5643 5643 5643 5643 5643 5643 5643 5643 5644 5644 5644 5644 5644 5644 5643
5634 5632 5637 5640 5646 5646 5635 5637 5644 5647 5647 5646 5645 5646 5645 5646 5644 5642 5641 5640 5640 5640 5640 5639 5639 5639 5637 5637 5636 5637 5637 5637 5636 5636 5637 5638 5638 5638 5638 5638 5638 5638 5638 5638
5627 5623 5623 5631 5634 5630 5629 5635 5637 5638 5639 5638 5637 5637 5637 5636 5634 5634 5633 5632 5632 5632 5632 5632 5632 5632 5631 5630 5630 5630 5631 5631 5631 5631 5632 5633 5632 5633 5633 5632 5633 5633 5633 5633
5621 5618 5620 5625 5624 5625 5627 5627 5629 5630 5631 5630 5629 5628 5628 5626 5625 5624 5624 5624 5624 5624 5624 5624 5625 5625 5624 5624 5624 5623 5624 5624 5624 5625 5625 5626 5627 5628 5628 5628 5629 5630 5630 5630
5610 5613 5615 5617 5618 5619 5621 5620 5622 5622 5622 5622 5621 5621 5619 5617 5616 5616 5616 5617 5617 5617 5617 5617 5617 5618 5618 5617 5617 5617 5617 5617 5618 5619 5620 5620 5621 5624 5624 5625 5625 5625 5625 5625
5605 5607 5608 5610 5611 5612 5612 5613 5613 5613 5614 5614 5615 5614 5612 5611 5610 5609 5609 5610 5610 5610 5610 5610 5610 5610 5611 5611 5611 5610 5611 5611 5613 5614 5614 5614 5615 5616 5618 5619 5619 5617 5619 5620
5601 5602 5603 5603 5605 5606 5605 5605 5606 5606 5606 5608 5609 5608 5607 5605 5604 5603 5603 5603 5603 5603 5603 5603 5603 5603 5604 5604 5604 5603 5604 5605 5607 5608 5608 5608 5609 5610 5609 5609 5608 5607 5606 5606
5598 5599 5600 5600 5600 5601 5600 5600 5600 5600 5600 5601 5602 5602 5601 5600 5598 5597 5597 5596 5596 5596 5597 5597 5597 5596 5596 5597 5597 5597 5597 5598 5600 5601 5602 5602 5603 5603 5604 5603 5601 5600 5599 5599
5593 5592 5591 5593 5593 5594 5594 5595 5595 5595 5596 5596 5596 5595 5595 5593 5592 5590 5590 5590 5590 5590 5590 5590 5589 5589 5589 5590 5590 5591 5592 5592 5592 5594 5596 5596 5596 5597 5598 5599 5599 5599 5596 5593
5587 5588 5588 5588 5588 5588 5589 5590 5589 5589 5589 5589 5590 5589 5588 5587 5585 5584 5584 5584 5583 5583 5583 5583 5583 5582 5583 5583 5584 5584 5585 5586 5587 5588 5589 5590 5590 5591 5592 5593 5593 5594 5595 5593
5582 5583 5583 5583 5582 5582 5583 5584 5584 5583 5583 5583 5583 5582 5582 5581 5579 5578 5578 5578 5577 5577 5577 5577 5577 5577 5577 5577 5577 5578 5579 5577 5577 5580 5581 5583 5583 5583 5584 5585 5586 5587 5588 5588
5576 5575 5576 5576 5577 5577 5577 5578 5578 5578 5578 5577 5577 5576 5576 5575 5573 5571 5571 5572 5571 5570 5570 5570 5570 5570 5570 5571 5571 5573 5574 5573 5570 5572 5575 5576 5576 5576 5576 5577 5578 5580 5581 5581
5574 5573 5573 5572 5571 5570 5570 5572 5572 5572 5571 5572 5571 5570 5569 5568 5566 5565 5566 5566 5565 5565 5564 5564 5564 5564 5564 5565 5565 5566 5567 5568 5568 5568 5567 5568 5568 5568 5569 5571 5573 5574 5575 5576
5570 5569 5568 5567 5566 5565 5565 5566 5566 5566 5567 5567 5566 5564 5562 5562 5561 5560 5560 5560 5559 5559 5559 5559 5556 5557 5558 5559 5557 5559 5561 5562 5561 5561 5560 5559 5560 5562 5563 5564 5565 5567 5568 5569
5564 5563 5563 5562 5561 5560 5560 5560 5561 5561 5562 5562 5560 5559 5557 5557 5557 5556 5555 5555 5555 5555 5553 5552 5553 5553 5553 5553 5549 5554 5555 5555 5555 5554 5554 5555 5556 5556 5556 5557 5559 5560 5561 5562
5558 5558 5557 5557 5556 5556 5556 5556 5556 5556 5556 5556 5555 5554 5553 5552 5552 5551 5550 5551 5549 5548 5547 5546 5548 5549 5548 5546 5543 5549 5550 5549 5549 5548 5548 5550 5550 5549 5550 5551 5552 5553 5554 5555
5553 5552 5552 5551 5551 5551 5551 5551 5551 5551 5551 5551 5550 5549 5547 5546 5546 5545 5545 5544 5544 5539 5542 5544 5544 5541 5540 5538 5543 5545 5545 5544 5544 5543 5543 5543 5543 5543 5544 5545 5545 5546 5547 5548
5547 5547 5546 5546 5546 5546 5546 5546 5546 5545 5545 5545 5544 5543 5542 5540 5541 5541 5540 5538 5538 5533 5536 5538 5535 5532 5530 5535 5539 5540 5540 5539 5538 5539 5538 5538 5538 5538 5539 5539 5540 5541 5541 5542
5542 5542 5541 5541 5541 5541 5540 5541 5541 5540 5540 5540 5539 5538 5537 5536 5536 5537 5536 5531 5529 5528 5533 5531 5527 5526 5526 5532 5534 5535 5534 5533 5533 5533 5534 5533 5533 5534 5534 5534 5535 5536 5536 5537
5537 5537 5537 5536 5536 5537 5537 5537 5536 5536 5536 5536 5535 5534 5533 5532 5532 5532 5531 5530 5527 5526 5530 5529 5524 5523 5526 5529 5530 5530 5529 5528 5528 5527 5528 5528 5528 5528 5529 5529 5530 5531 5531 5532
5533 5533 5533 5532 5532 5532 5534 5534 5534 5533 5533 5533 5532 5531 5530 5528 5527 5527 5526 5527 5526 5524 5526 5527 5526 5523 5525 5526 5525 5525 5524 5524 5524 5524 5523 5523 5523 5524 5524 5525 5525 5526 5526 5527
5529 5529 5529 5530 5531 5531 5531 5531 5530 5529 5528 5527 5527 5526 5525 5524 5524 5523 5522 5523 5523 5523 5523 5522 5522 5522 5522 5522 5521 5520 5520 5519 5519 5519 5519 5519 5519 5519 5520 5520 5520 5521 5521 5521